This is the latest recevied weather packets stored in our database for station/object NC4M. If no packets are shown the sender has not sent any weather packets the latest 10 day(s).
| Time | Temp. | Humidity | Pressure | Rain* | Wind** | Luminosity | Snow |
|---|---|---|---|---|---|---|---|
| 1777725355 | 6.67° C | 83% | 1018.9 hPa | 0 mm | - | 36 W/m² | - |
| 1777725052 | 6.67° C | 83% | 1019.1 hPa | 0 mm | - | 36 W/m² | - |
| 1777724748 | 6.11° C | 84% | 1019.1 hPa | 0 mm | - | 38 W/m² | - |
| 1777724446 | 6.11° C | 83% | 1019.1 hPa | 0 mm | - | 33 W/m² | - |
| 1777724143 | 6.11° C | 84% | 1019.1 hPa | 0 mm | - | 35 W/m² | - |
| 1777723841 | 6.11° C | 84% | 1018.9 hPa | 0 mm | - | 29 W/m² | - |
| 1777723537 | 6.11° C | 85% | 1018.8 hPa | 0 mm | - | 25 W/m² | - |
| 1777723234 | 5.56° C | 85% | 1018.7 hPa | 0 mm | - | 22 W/m² | - |
| 1777722021 | 5.56° C | 85% | 1018.6 hPa | 0 mm | - | 14 W/m² | - |
| 1777721719 | 5.56° C | 85% | 1018.6 hPa | 0 mm | - | 12 W/m² | - |
| 1777721417 | 5.56° C | 86% | 1018.5 hPa | 0 mm | - | 9 W/m² | - |
| 1777721115 | 5.56° C | 85% | 1018.4 hPa | 0 mm | - | 7 W/m² | - |
| 1777720812 | 5.56° C | 85% | 1018.2 hPa | 0 mm | - | 5 W/m² | - |
| 1777720509 | 5.56° C | 87% | 1018.3 hPa | 0 mm | - | 3 W/m² | - |
| 1777720207 | 5.56° C | 87% | 1018.3 hPa | 0 mm | - | 2 W/m² | - |
| 1777719903 | 5.56° C | 88% | 1018.3 hPa | 0 mm | - | 1 W/m² | - |
| 1777719601 | 5° C | 87% | 1017.9 hPa | 0 mm | - | 0 W/m² | - |
| 1777719299 | 5.56° C | 87% | 1018 hPa | 0 mm | - | 0 W/m² | - |
| 1777718996 | 5.56° C | 86% | 1017.9 hPa | 0 mm | - | 0 W/m² | - |
| 1777718693 | 5.56° C | 85% | 1017.9 hPa | 0 mm | - | 0 W/m² | - |
| 1777718390 | 5.56° C | 83% | 1017.7 hPa | 0 mm | - | 0 W/m² | - |
| 1777718088 | 6.11° C | 82% | 1017.7 hPa | 0 mm | - | 0 W/m² | - |
| 1777717785 | 6.11° C | 82% | 1017.6 hPa | 0 mm | - | 0 W/m² | - |
| 1777717482 | 6.67° C | 81% | 1017.6 hPa | 0 mm | - | 0 W/m² | - |
| 1777717178 | 6.67° C | 80% | 1017.6 hPa | 0 mm | - | 0 W/m² | - |
* Rain latest hour (hover to see other rain measurements)
** Current wind speed in m/s (hover to see current wind gust speed)